Serenade Of The Seas — C6FV8 — position and weather

sailwx.info

Track history (hours):
 
Tides and Currents Weather Stations Pressure Air Temp Water Temp Dewpoint Dewpoint Depression Visibility Wind Speed Wind Dir Waves Ship Positions

Serenade Of The Seas

Operator: Royal Caribbean Cruises Ltd

Last reported at 2014-Sep-07 06:21 UTC. Time now 2014-Sep-16 05:03 UTC.
Position N 38°20' E 015°40'.
Warning: this ship's position is 8 days out of date.

Length 294 m; draft 8.5 m.

Type: Ship. MMSI: 311492000.

Date/timePositionNaut miles runAvg speedWind from/ knotsBaromVisibWave heightAir tempDewpointWater temp
2014-Sep-07 06:21N 38°20' E 015°40'  
2014-Sep-02 19:13N 36°18' E 015°06'  
2014-Aug-31 00:33N 42°37' E 008°23'1413.9
2014-Aug-30 23:33N 42°49' E 008°34'1514.6
2014-Aug-30 22:33N 42°59' E 008°48'1914.7
2014-Aug-30 21:16N 43°12' E 009°07'1115.4
2014-Aug-30 20:34N 43°19' E 009°18'1515.1
2014-Aug-30 19:34N 43°26' E 009°37'1515.0
2014-Aug-30 18:34N 43°31' E 009°56'1414.2
2014-Aug-30 17:33N 43°32' E 010°16'2 2.1
2014-Aug-30 16:33N 43°33' E 010°18'0 0.0
2014-Aug-30 15:33N 43°33' E 010°18'0 0.0
2014-Aug-30 14:33N 43°33' E 010°18'0 0.0
2014-Aug-30 13:33N 43°33' E 010°18'0 0.0
2014-Aug-30 12:33N 43°33' E 010°18'0 0.0
2014-Aug-30 11:30N 43°33' E 010°18'0 0.0
2014-Aug-30 10:33N 43°33' E 010°18'0 0.0
2014-Aug-30 09:33N 43°33' E 010°18'0 0.0
2014-Aug-30 08:33N 43°33' E 010°18'0 0.0
2014-Aug-30 07:33N 43°33' E 010°18'0 0.0
2014-Aug-30 06:33N 43°33' E 010°18'0 0.0
2014-Aug-30 05:33N 43°33' E 010°18'0 0.3
2014-Aug-30 04:34N 43°33' E 010°17'9 9.1
2014-Aug-30 03:34N 43°29' E 010°07'1616.3
2014-Aug-30 02:34N 43°32' E 009°44'1716.6
2014-Aug-30 01:34N 43°30' E 009°22'1717.5
2014-Aug-30 00:34N 43°24' E 008°58'1717.3
2014-Aug-29 23:34N 43°20' E 008°36'1717.2
2014-Aug-29 22:33N 43°15' E 008°13'1717.3
2014-Aug-29 21:33N 43°10' E 007°50'2117.3
2014-Aug-29 20:22N 43°04' E 007°23'1417.6
2014-Aug-29 19:34N 42°60' E 007°05'1817.7
2014-Aug-29 18:33N 42°55' E 006°41'1717.3
2014-Aug-29 17:33N 42°54' E 006°18'1616.2
2014-Aug-29 16:33N 43°03' E 005°60'5 2.4
2014-Aug-29 14:20N 43°06' E 005°54'0 0.0
2014-Aug-29 11:14N 43°06' E 005°54'0 0.0
2014-Aug-29 10:20N 43°06' E 005°54'0 0.0
2014-Aug-29 09:32N 43°06' E 005°54'0 0.0
2014-Aug-29 08:32N 43°06' E 005°54'0 0.0
2014-Aug-29 07:32N 43°06' E 005°54'0 0.0
2014-Aug-29 06:32N 43°06' E 005°54'0 0.0
2014-Aug-29 05:32N 43°06' E 005°54'0 0.3
2014-Aug-29 04:34N 43°06' E 005°54'9 9.3
2014-Aug-29 03:33N 42°58' E 006°01'1515.3
2014-Aug-29 02:34N 42°46' E 005°49'1717.3
2014-Aug-29 01:33N 42°37' E 005°29'1717.3
2014-Aug-29 00:33N 42°27' E 005°09'1717.3
2014-Aug-28 23:33N 42°18' E 004°49'1817.0
2014-Aug-28 22:31N 42°09' E 004°29'1717.6
2014-Aug-28 21:32N 41°60' E 004°09'1817.5
2014-Aug-28 20:32N 41°50' E 003°49'1917.0
2014-Aug-28 19:25N 41°40' E 003°28'1817.2
2014-Aug-28 18:20N 41°30' E 003°07'1617.3
2014-Aug-28 17:25N 41°22' E 002°49'1517.0
2014-Aug-28 16:33N 41°16' E 002°31'1515.5
2014-Aug-28 15:33N 41°17' E 002°10'4 2.8
2014-Aug-28 14:07N 41°22' E 002°11'0 0.0
2014-Aug-28 13:31N 41°22' E 002°11'0 0.0
2014-Aug-28 10:07N 41°22' E 002°11'0 0.0
2014-Aug-28 08:25N 41°22' E 002°11'0 0.0
2014-Aug-28 07:31N 41°22' E 002°11'0 0.0
2014-Aug-28 06:31N 41°22' E 002°11'  
Track history (hours):
 
Tides and Currents Weather Stations Pressure Air Temp Water Temp Dewpoint Dewpoint Depression Visibility Wind Speed Wind Dir Waves Ship Positions

Serenade Of The Seas

Operator: Royal Caribbean Cruises Ltd

Last reported at 2014-Sep-07 06:21 UTC. Time now 2014-Sep-16 05:03 UTC.
Position N 38°20' E 015°40'.
Warning: this ship's position is 8 days out of date.

Length 294 m; draft 8.5 m.

Type: Ship. MMSI: 311492000.

Date/timePositionNaut miles runAvg speedWind from/ knotsBaromVisibWave heightAir tempDewpointWater temp
2014-Sep-07 06:21N 38°20' E 015°40'  
2014-Sep-02 19:13N 36°18' E 015°06'  
2014-Aug-31 00:33N 42°37' E 008°23'1413.9
2014-Aug-30 23:33N 42°49' E 008°34'1514.6
2014-Aug-30 22:33N 42°59' E 008°48'1914.7
2014-Aug-30 21:16N 43°12' E 009°07'1115.4
2014-Aug-30 20:34N 43°19' E 009°18'1515.1
2014-Aug-30 19:34N 43°26' E 009°37'1515.0
2014-Aug-30 18:34N 43°31' E 009°56'1414.2
2014-Aug-30 17:33N 43°32' E 010°16'2 2.1
2014-Aug-30 16:33N 43°33' E 010°18'0 0.0
2014-Aug-30 15:33N 43°33' E 010°18'0 0.0
2014-Aug-30 14:33N 43°33' E 010°18'0 0.0
2014-Aug-30 13:33N 43°33' E 010°18'0 0.0
2014-Aug-30 12:33N 43°33' E 010°18'0 0.0
2014-Aug-30 11:30N 43°33' E 010°18'0 0.0
2014-Aug-30 10:33N 43°33' E 010°18'0 0.0
2014-Aug-30 09:33N 43°33' E 010°18'0 0.0
2014-Aug-30 08:33N 43°33' E 010°18'0 0.0
2014-Aug-30 07:33N 43°33' E 010°18'0 0.0
2014-Aug-30 06:33N 43°33' E 010°18'0 0.0
2014-Aug-30 05:33N 43°33' E 010°18'0 0.3
2014-Aug-30 04:34N 43°33' E 010°17'9 9.1
2014-Aug-30 03:34N 43°29' E 010°07'1616.3
2014-Aug-30 02:34N 43°32' E 009°44'1716.6
2014-Aug-30 01:34N 43°30' E 009°22'1717.5
2014-Aug-30 00:34N 43°24' E 008°58'1717.3
2014-Aug-29 23:34N 43°20' E 008°36'1717.2
2014-Aug-29 22:33N 43°15' E 008°13'1717.3
2014-Aug-29 21:33N 43°10' E 007°50'2117.3
2014-Aug-29 20:22N 43°04' E 007°23'1417.6
2014-Aug-29 19:34N 42°60' E 007°05'1817.7
2014-Aug-29 18:33N 42°55' E 006°41'1717.3
2014-Aug-29 17:33N 42°54' E 006°18'1616.2
2014-Aug-29 16:33N 43°03' E 005°60'5 2.4
2014-Aug-29 14:20N 43°06' E 005°54'0 0.0
2014-Aug-29 11:14N 43°06' E 005°54'0 0.0
2014-Aug-29 10:20N 43°06' E 005°54'0 0.0
2014-Aug-29 09:32N 43°06' E 005°54'0 0.0
2014-Aug-29 08:32N 43°06' E 005°54'0 0.0
2014-Aug-29 07:32N 43°06' E 005°54'0 0.0
2014-Aug-29 06:32N 43°06' E 005°54'0 0.0
2014-Aug-29 05:32N 43°06' E 005°54'0 0.3
2014-Aug-29 04:34N 43°06' E 005°54'9 9.3
2014-Aug-29 03:33N 42°58' E 006°01'1515.3
2014-Aug-29 02:34N 42°46' E 005°49'1717.3
2014-Aug-29 01:33N 42°37' E 005°29'1717.3
2014-Aug-29 00:33N 42°27' E 005°09'1717.3
2014-Aug-28 23:33N 42°18' E 004°49'1817.0
2014-Aug-28 22:31N 42°09' E 004°29'1717.6
2014-Aug-28 21:32N 41°60' E 004°09'1817.5
2014-Aug-28 20:32N 41°50' E 003°49'1917.0
2014-Aug-28 19:25N 41°40' E 003°28'1817.2
2014-Aug-28 18:20N 41°30' E 003°07'1617.3
2014-Aug-28 17:25N 41°22' E 002°49'1517.0
2014-Aug-28 16:33N 41°16' E 002°31'1515.5
2014-Aug-28 15:33N 41°17' E 002°10'4 2.8
2014-Aug-28 14:07N 41°22' E 002°11'0 0.0
2014-Aug-28 13:31N 41°22' E 002°11'0 0.0
2014-Aug-28 10:07N 41°22' E 002°11'0 0.0
2014-Aug-28 08:25N 41°22' E 002°11'0 0.0
2014-Aug-28 07:31N 41°22' E 002°11'0 0.0
2014-Aug-28 06:31N 41°22' E 002°11'  

Dump ship's entire track history